{"data":{"norad_id":68615,"intl_designator":"2026-073P","name":"STARLINK-37176","alt_names":[],"object_type":"PAYLOAD","status":"ACTIVE","operator":null,"country":"US","launch_date":"2026-04-07","launch_site_code":"AFWTR","launch_vehicle":null,"mission":null,"orbit_class":"UNKNOWN","rcs_meters":null,"size_class":null,"mass_kg":null,"dimensions":null,"purposes":["comms"],"wikipedia_slug":null,"has_3d_model":false,"image_url":null,"decayed_at":null,"tle_current":{"epoch":"2026-05-25T04:00:03.998880Z","epoch_age_seconds":56781,"freshness":"FRESH","line1":"1 68615U 26073P   26145.16671295 -.02652699  00000+0 -35187-1 0  9994","line2":"2 68615  97.2842 344.7311 0002184  82.0247  42.3982 15.62055955  5951","mean_motion":15.62055955,"eccentricity":0.0002184,"inclination_deg":97.2842,"raan_deg":344.7311,"arg_perigee_deg":82.0247,"mean_anomaly_deg":42.3982,"bstar":-0.035187,"rev_number":595,"period_min":92.186198285067,"perigee_km":380.24273290676,"apogee_km":383.1954380449,"semimajor_km":6759.8560854758,"source":"CELESTRAK","updated_at":"2026-05-25T13:38:21.969162Z"}}}